Time,TemperatureF,DewpointF,PressureIn,WindDirection,WindDirectionDegrees,WindSpeedMPH,WindSpeedGustMPH,Humidity,HourlyPrecipIn,Conditions,Clouds,dailyrainin,SoftwareType,DateUTC
2013-09-08 00:01:00,64.6,29.9,29.99,West,277,2.7,2.7,27,0.00,,---,0.00,VWS V14.01,2013-09-08 06:01:00,
2013-09-08 00:06:00,64.2,30.5,29.99,West,273,0.0,2.7,28,0.00,,---,0.00,VWS V14.01,2013-09-08 06:06:00,
2013-09-08 00:11:00,63.3,29.7,29.99,West,273,0.0,2.7,28,0.00,,---,0.00,VWS V14.01,2013-09-08 06:11:00,
2013-09-08 00:16:00,62.8,30.9,29.99,WSW,258,0.0,0.0,30,0.00,,---,0.00,VWS V14.01,2013-09-08 06:16:00,
2013-09-08 00:21:00,61.9,30.9,29.99,SE,145,0.0,0.0,31,0.00,,---,0.00,VWS V14.01,2013-09-08 06:21:00,
2013-09-08 00:26:00,60.4,31.2,29.99,SE,145,0.0,0.0,33,0.00,,---,0.00,VWS V14.01,2013-09-08 06:26:00,
2013-09-08 00:31:00,59.7,31.3,29.99,SSE,147,0.0,0.0,34,0.00,,---,0.00,VWS V14.01,2013-09-08 06:31:00,
2013-09-08 00:36:00,59.5,31.9,29.99,SE,141,0.0,0.0,35,0.00,,---,0.00,VWS V14.01,2013-09-08 06:36:00,
2013-09-08 00:41:00,59.2,31.6,29.99,WSW,254,0.0,2.2,35,0.00,,---,0.00,VWS V14.01,2013-09-08 06:41:00,
2013-09-08 00:46:00,59.2,31.6,29.99,WSW,254,0.0,0.0,35,0.00,,---,0.00,VWS V14.01,2013-09-08 06:46:00,
2013-09-08 00:51:00,58.8,32.0,29.99,SE,141,0.0,3.6,36,0.00,,---,0.00,VWS V14.01,2013-09-08 06:51:00,
2013-09-08 00:56:00,57.7,31.7,29.99,SSE,149,0.0,3.6,37,0.00,,---,0.00,VWS V14.01,2013-09-08 06:56:00,
2013-09-08 01:01:00,57.4,32.0,29.99,SSW,194,0.0,0.0,38,0.00,,---,0.00,VWS V14.01,2013-09-08 07:01:00,
2013-09-08 01:06:00,57.2,31.8,29.99,SSW,194,0.0,0.0,38,0.00,,---,0.00,VWS V14.01,2013-09-08 07:06:00,
2013-09-08 01:11:00,57.0,33.6,29.99,SSW,194,0.0,0.0,41,0.00,,---,0.00,VWS V14.01,2013-09-08 07:11:00,
2013-09-08 01:16:00,56.3,32.3,29.99,SSW,194,0.0,0.0,40,0.00,,---,0.00,VWS V14.01,2013-09-08 07:16:00,
2013-09-08 01:21:00,55.9,32.0,29.99,SSW,194,0.0,0.0,40,0.00,,---,0.00,VWS V14.01,2013-09-08 07:21:00,
2013-09-08 01:26:00,55.6,31.7,29.99,SSW,194,0.0,0.0,40,0.00,,---,0.00,VWS V14.01,2013-09-08 07:26:00,
2013-09-08 01:31:00,55.2,32.0,29.99,SSW,194,0.0,0.0,41,0.00,,---,0.00,VWS V14.01,2013-09-08 07:31:00,
2013-09-08 01:36:00,54.9,31.6,29.99,SSW,194,0.0,0.0,41,0.00,,---,0.00,VWS V14.01,2013-09-08 07:36:00,
2013-09-08 01:41:00,54.7,33.2,29.99,SSW,194,0.0,0.0,44,0.00,,---,0.00,VWS V14.01,2013-09-08 07:41:00,
2013-09-08 01:46:00,54.9,34.5,29.99,SSW,194,0.0,0.0,46,0.00,,---,0.00,VWS V14.01,2013-09-08 07:46:00,
2013-09-08 01:51:00,55.2,34.3,29.99,SSW,194,0.0,0.0,45,0.00,,---,0.00,VWS V14.01,2013-09-08 07:51:00,
2013-09-08 01:56:00,55.0,34.1,29.99,SSW,194,0.0,0.0,45,0.00,,---,0.00,VWS V14.01,2013-09-08 07:56:00,
2013-09-08 02:01:00,54.7,33.8,29.99,SSW,194,0.0,0.0,45,0.00,,---,0.00,VWS V14.01,2013-09-08 08:01:00,
2013-09-08 02:06:00,54.1,33.3,29.99,SSW,194,0.0,0.0,45,0.00,,---,0.00,VWS V14.01,2013-09-08 08:06:00,
2013-09-08 02:11:00,54.0,33.1,29.99,SSW,194,0.0,0.0,45,0.00,,---,0.00,VWS V14.01,2013-09-08 08:11:00,
2013-09-08 02:16:00,53.8,33.0,29.99,SSE,162,0.0,0.0,45,0.00,,---,0.00,VWS V14.01,2013-09-08 08:16:00,
2013-09-08 02:21:00,53.8,33.5,29.99,SSE,166,0.0,0.0,46,0.00,,---,0.00,VWS V14.01,2013-09-08 08:21:00,
2013-09-08 02:26:00,53.6,33.3,29.99,South,174,0.0,0.0,46,0.00,,---,0.00,VWS V14.01,2013-09-08 08:26:00,
2013-09-08 02:31:00,53.4,33.7,29.99,South,174,0.0,0.0,47,0.00,,---,0.00,VWS V14.01,2013-09-08 08:31:00,
2013-09-08 02:36:00,53.1,33.4,29.99,South,174,0.0,0.0,47,0.00,,---,0.00,VWS V14.01,2013-09-08 08:36:00,
2013-09-08 02:41:00,52.7,33.0,29.99,South,174,0.0,0.0,47,0.00,,---,0.00,VWS V14.01,2013-09-08 08:41:00,
2013-09-08 02:46:00,52.5,32.9,29.99,South,174,0.0,0.0,47,0.00,,---,0.00,VWS V14.01,2013-09-08 08:46:00,
2013-09-08 02:51:00,52.3,33.8,29.99,South,174,0.0,0.0,49,0.00,,---,0.00,VWS V14.01,2013-09-08 08:51:00,
2013-09-08 02:56:00,52.2,33.6,29.99,South,174,0.0,0.0,49,0.00,,---,0.00,VWS V14.01,2013-09-08 08:56:00,
2013-09-08 03:01:00,52.2,33.6,29.99,South,174,0.0,0.0,49,0.00,,---,0.00,VWS V14.01,2013-09-08 09:01:00,
2013-09-08 03:06:00,52.0,33.4,29.99,South,174,0.0,0.0,49,0.00,,---,0.00,VWS V14.01,2013-09-08 09:06:00,
2013-09-08 03:11:00,51.6,33.1,29.99,South,174,0.0,0.0,49,0.00,,---,0.00,VWS V14.01,2013-09-08 09:11:00,
2013-09-08 03:16:00,51.6,33.1,29.99,South,174,0.0,0.0,49,0.00,,---,0.00,VWS V14.01,2013-09-08 09:16:00,
2013-09-08 03:21:00,51.3,32.8,29.99,South,174,0.0,0.0,49,0.00,,---,0.00,VWS V14.01,2013-09-08 09:21:00,
2013-09-08 03:26:00,51.1,32.6,29.99,South,174,0.0,0.0,49,0.00,,---,0.00,VWS V14.01,2013-09-08 09:26:00,
2013-09-08 03:31:00,50.9,32.9,29.99,South,174,0.0,0.0,50,0.00,,---,0.00,VWS V14.01,2013-09-08 09:31:00,
2013-09-08 03:36:00,50.7,32.8,29.99,South,174,0.0,0.0,50,0.00,,---,0.00,VWS V14.01,2013-09-08 09:36:00,
2013-09-08 03:41:00,50.7,32.8,29.99,South,174,0.0,0.0,50,0.00,,---,0.00,VWS V14.01,2013-09-08 09:41:00,
2013-09-08 03:45:00,50.5,33.1,29.99,South,187,0.0,0.0,51,0.00,,---,0.00,VWS V14.01,2013-09-08 09:45:00,
2013-09-08 03:50:00,50.2,32.3,29.99,South,187,0.0,0.0,50,0.00,,---,0.00,VWS V14.01,2013-09-08 09:50:00,
2013-09-08 03:55:00,50.2,32.8,29.99,South,187,0.0,0.0,51,0.00,,---,0.00,VWS V14.01,2013-09-08 09:55:00,
2013-09-08 04:00:00,50.0,32.6,29.99,South,187,0.0,0.0,51,0.00,,---,0.00,VWS V14.01,2013-09-08 10:00:00,
2013-09-08 04:05:00,49.8,32.9,29.99,South,187,0.0,0.0,52,0.00,,---,0.00,VWS V14.01,2013-09-08 10:05:00,
2013-09-08 04:10:00,49.8,32.9,29.99,South,187,0.0,0.0,52,0.00,,---,0.00,VWS V14.01,2013-09-08 10:10:00,
2013-09-08 04:15:00,50.0,33.1,29.99,South,187,0.0,0.0,52,0.00,,---,0.00,VWS V14.01,2013-09-08 10:15:00,
2013-09-08 04:20:00,50.0,33.6,29.99,South,187,0.0,0.0,53,0.00,,---,0.00,VWS V14.01,2013-09-08 10:20:00,
2013-09-08 04:25:00,50.0,33.6,29.99,South,187,0.0,0.0,53,0.00,,---,0.00,VWS V14.01,2013-09-08 10:25:00,
2013-09-08 04:30:00,50.2,34.7,29.99,South,187,0.0,0.0,55,0.00,,---,0.00,VWS V14.01,2013-09-08 10:30:00,
2013-09-08 04:35:00,50.2,34.2,29.99,South,187,0.0,0.0,54,0.00,,---,0.00,VWS V14.01,2013-09-08 10:35:00,
2013-09-08 04:40:00,50.0,34.0,29.99,South,187,0.0,0.0,54,0.00,,---,0.00,VWS V14.01,2013-09-08 10:40:00,
2013-09-08 04:45:00,49.5,33.5,29.99,South,187,0.0,0.0,54,0.00,,---,0.00,VWS V14.01,2013-09-08 10:45:00,
2013-09-08 04:50:00,49.3,33.4,29.96,South,187,0.0,0.0,54,0.00,,---,0.00,VWS V14.01,2013-09-08 10:50:00,
2013-09-08 04:55:00,49.3,33.4,29.96,South,187,0.0,0.0,54,0.00,,---,0.00,VWS V14.01,2013-09-08 10:55:00,
2013-09-08 05:00:00,49.3,33.4,29.96,South,187,0.0,0.0,54,0.00,,---,0.00,VWS V14.01,2013-09-08 11:00:00,
2013-09-08 05:05:00,49.6,33.7,29.99,South,187,0.0,0.0,54,0.00,,---,0.00,VWS V14.01,2013-09-08 11:05:00,
2013-09-08 05:10:00,49.6,33.7,29.99,South,187,0.0,0.0,54,0.00,,---,0.00,VWS V14.01,2013-09-08 11:10:00,
2013-09-08 05:15:00,49.3,33.4,29.99,South,187,0.0,0.0,54,0.00,,---,0.00,VWS V14.01,2013-09-08 11:15:00,
2013-09-08 05:20:00,49.1,33.2,29.99,South,187,0.0,0.0,54,0.00,,---,0.00,VWS V14.01,2013-09-08 11:20:00,
2013-09-08 05:25:00,48.7,32.8,29.99,South,187,0.0,0.0,54,0.00,,---,0.00,VWS V14.01,2013-09-08 11:25:00,
2013-09-08 05:30:00,48.7,33.3,29.99,South,187,0.0,0.0,55,0.00,,---,0.00,VWS V14.01,2013-09-08 11:30:00,
2013-09-08 05:35:00,48.7,33.3,29.99,South,187,0.0,0.0,55,0.00,,---,0.00,VWS V14.01,2013-09-08 11:35:00,
2013-09-08 05:40:00,48.4,33.0,29.99,South,187,0.0,0.0,55,0.00,,---,0.00,VWS V14.01,2013-09-08 11:40:00,
2013-09-08 05:45:00,48.6,33.1,29.99,SSW,198,0.0,0.0,55,0.00,,---,0.00,VWS V14.01,2013-09-08 11:45:00,
2013-09-08 05:50:00,48.9,33.9,29.99,SSW,198,0.0,0.0,56,0.00,,---,0.00,VWS V14.01,2013-09-08 11:50:00,
2013-09-08 05:55:00,48.9,33.9,29.99,SSW,198,0.0,0.0,56,0.00,,---,0.00,VWS V14.01,2013-09-08 11:55:00,
2013-09-08 06:00:00,48.6,33.6,29.99,SSW,198,0.0,0.0,56,0.00,,---,0.00,VWS V14.01,2013-09-08 12:00:00,
2013-09-08 06:05:00,48.4,33.4,29.99,SSW,198,0.0,0.0,56,0.00,,---,0.00,VWS V14.01,2013-09-08 12:05:00,
2013-09-08 06:10:00,48.0,33.1,29.99,SSW,198,0.0,0.0,56,0.00,,---,0.00,VWS V14.01,2013-09-08 12:10:00,
2013-09-08 06:15:00,48.0,33.5,29.99,SSW,198,0.0,0.0,57,0.00,,---,0.00,VWS V14.01,2013-09-08 12:15:00,
2013-09-08 06:20:00,47.8,33.4,29.99,SSW,198,0.0,0.0,57,0.00,,---,0.00,VWS V14.01,2013-09-08 12:20:00,
2013-09-08 06:25:00,47.8,33.8,29.99,SSW,198,0.0,0.0,58,0.00,,---,0.00,VWS V14.01,2013-09-08 12:25:00,
2013-09-08 06:30:00,47.8,33.8,29.99,SSW,198,0.0,0.0,58,0.00,,---,0.00,VWS V14.01,2013-09-08 12:30:00,
2013-09-08 06:35:00,47.7,33.6,29.99,SSW,198,0.0,0.0,58,0.00,,---,0.00,VWS V14.01,2013-09-08 12:35:00,
2013-09-08 06:40:00,47.5,33.5,29.99,SSW,198,0.0,0.0,58,0.00,,---,0.00,VWS V14.01,2013-09-08 12:40:00,
2013-09-08 06:45:00,47.3,33.7,29.99,SSW,198,0.0,0.0,59,0.00,,---,0.00,VWS V14.01,2013-09-08 12:45:00,
2013-09-08 06:50:00,47.3,33.7,29.99,SSW,198,0.0,0.0,59,0.00,,---,0.00,VWS V14.01,2013-09-08 12:50:00,
2013-09-08 06:55:00,47.1,33.5,29.99,SSW,198,0.0,0.0,59,0.00,,---,0.00,VWS V14.01,2013-09-08 12:55:00,
2013-09-08 07:00:00,46.9,33.4,29.99,SSW,198,0.0,0.0,59,0.00,,---,0.00,VWS V14.01,2013-09-08 13:00:00,
2013-09-08 07:05:00,46.8,33.2,29.99,SSW,198,0.0,0.0,59,0.00,,---,0.00,VWS V14.01,2013-09-08 13:05:00,
2013-09-08 07:10:00,46.8,33.2,29.99,SSW,198,0.0,0.0,59,0.00,,---,0.00,VWS V14.01,2013-09-08 13:10:00,
2013-09-08 07:15:00,47.1,34.0,29.99,SW,214,0.0,0.0,60,0.00,,---,0.00,VWS V14.01,2013-09-08 13:15:00,
2013-09-08 07:20:00,47.3,34.1,29.99,SW,214,0.0,0.0,60,0.00,,---,0.00,VWS V14.01,2013-09-08 13:20:00,
2013-09-08 07:25:00,47.8,35.5,29.99,SW,214,0.0,0.0,62,0.00,,---,0.00,VWS V14.01,2013-09-08 13:25:00,
2013-09-08 07:30:00,48.4,36.0,29.99,SW,214,0.0,0.0,62,0.00,,---,0.00,VWS V14.01,2013-09-08 13:30:00,
2013-09-08 07:35:00,49.1,36.7,29.99,SW,214,0.0,0.0,62,0.00,,---,0.00,VWS V14.01,2013-09-08 13:35:00,
2013-09-08 07:40:00,50.5,38.4,29.99,SW,214,0.0,0.0,63,0.00,,---,0.00,VWS V14.01,2013-09-08 13:40:00,
2013-09-08 07:45:00,51.6,38.6,29.99,SW,214,0.0,0.0,61,0.00,,---,0.00,VWS V14.01,2013-09-08 13:45:00,
2013-09-08 07:50:00,52.2,38.7,29.99,SW,214,0.0,0.0,60,0.00,,---,0.00,VWS V14.01,2013-09-08 13:50:00,
2013-09-08 07:55:00,52.3,38.5,29.99,SW,214,0.0,0.0,59,0.00,,---,0.00,VWS V14.01,2013-09-08 13:55:00,
2013-09-08 08:00:00,52.7,38.8,29.99,SW,214,0.0,0.0,59,0.00,,---,0.00,VWS V14.01,2013-09-08 14:00:00,
2013-09-08 08:05:00,53.2,39.3,29.99,South,179,3.6,4.0,59,0.00,,---,0.00,VWS V14.01,2013-09-08 14:05:00,
2013-09-08 08:10:00,53.8,38.0,29.99,SSW,195,4.5,5.8,55,0.00,,---,0.00,VWS V14.01,2013-09-08 14:10:00,
2013-09-08 08:15:00,54.3,38.0,29.99,South,171,2.7,3.1,54,0.00,,---,0.00,VWS V14.01,2013-09-08 14:15:00,
2013-09-08 08:20:00,54.7,38.4,29.99,SSW,199,2.7,3.6,54,0.00,,---,0.00,VWS V14.01,2013-09-08 14:20:00,
2013-09-08 08:25:00,55.0,38.7,29.99,South,188,0.0,3.6,54,0.00,,---,0.00,VWS V14.01,2013-09-08 14:25:00,
2013-09-08 08:30:00,55.2,38.4,29.99,South,188,0.0,0.0,53,0.00,,---,0.00,VWS V14.01,2013-09-08 14:30:00,
2013-09-08 08:35:00,55.4,38.6,29.99,South,188,0.0,0.0,53,0.00,,---,0.00,VWS V14.01,2013-09-08 14:35:00,
2013-09-08 08:40:00,55.6,38.2,29.99,South,188,0.0,0.0,52,0.00,,---,0.00,VWS V14.01,2013-09-08 14:40:00,
2013-09-08 08:45:00,55.8,38.4,29.99,South,188,0.0,0.0,52,0.00,,---,0.00,VWS V14.01,2013-09-08 14:45:00,
2013-09-08 08:50:00,55.6,38.2,29.99,South,188,0.0,0.0,52,0.00,,---,0.00,VWS V14.01,2013-09-08 14:50:00,
2013-09-08 08:55:00,55.4,38.1,29.99,SSE,159,0.0,0.0,52,0.00,,---,0.00,VWS V14.01,2013-09-08 14:55:00,
2013-09-08 09:00:00,54.7,37.4,29.99,SSE,159,0.0,0.0,52,0.00,,---,0.00,VWS V14.01,2013-09-08 15:00:00,
2013-09-08 09:05:00,54.7,37.9,29.99,SSE,159,0.0,0.0,53,0.00,,---,0.00,VWS V14.01,2013-09-08 15:05:00,
2013-09-08 09:10:00,55.4,38.6,29.99,SE,130,0.0,0.0,53,0.00,,---,0.00,VWS V14.01,2013-09-08 15:10:00,
2013-09-08 09:15:00,56.1,38.8,29.99,ESE,117,0.0,0.0,52,0.00,,---,0.00,VWS V14.01,2013-09-08 15:15:00,
2013-09-08 09:20:00,57.0,39.6,29.99,ESE,117,0.0,0.0,52,0.00,,---,0.00,VWS V14.01,2013-09-08 15:20:00,
2013-09-08 09:25:00,57.9,38.4,29.99,ESE,117,0.0,0.0,48,0.00,,---,0.00,VWS V14.01,2013-09-08 15:25:00,
2013-09-08 09:30:00,58.5,38.3,29.99,ESE,117,0.0,0.0,47,0.00,,---,0.00,VWS V14.01,2013-09-08 15:30:00,
2013-09-08 09:35:00,59.0,38.3,29.99,ESE,117,0.0,0.0,46,0.00,,---,0.00,VWS V14.01,2013-09-08 15:35:00,
2013-09-08 09:40:00,59.4,37.5,29.99,ESE,117,0.0,0.0,44,0.00,,---,0.00,VWS V14.01,2013-09-08 15:40:00,
2013-09-08 09:45:00,59.2,36.7,29.99,ESE,109,0.0,0.0,43,0.00,,---,0.00,VWS V14.01,2013-09-08 15:45:00,
2013-09-08 09:50:00,58.8,37.0,29.99,East,81,0.0,0.0,44,0.00,,---,0.00,VWS V14.01,2013-09-08 15:50:00,
2013-09-08 09:55:00,58.8,36.4,29.99,ENE,72,0.0,0.0,43,0.00,,---,0.00,VWS V14.01,2013-09-08 15:55:00,
2013-09-08 10:00:00,59.2,37.3,29.99,NNE,26,0.0,0.0,44,0.00,,---,0.00,VWS V14.01,2013-09-08 16:00:00,
2013-09-08 10:05:00,59.5,37.0,29.99,NE,38,0.0,0.0,43,0.00,,---,0.00,VWS V14.01,2013-09-08 16:05:00,
2013-09-08 10:10:00,59.9,36.2,29.99,NE,38,0.0,0.0,41,0.00,,---,0.00,VWS V14.01,2013-09-08 16:10:00,
2013-09-08 10:15:00,60.4,36.0,29.99,NE,38,0.0,0.0,40,0.00,,---,0.00,VWS V14.01,2013-09-08 16:15:00,
2013-09-08 10:20:00,60.4,36.0,29.99,NNE,13,0.0,2.2,40,0.00,,---,0.00,VWS V14.01,2013-09-08 16:20:00,
2013-09-08 10:25:00,60.4,36.0,29.99,NW,305,0.0,2.2,40,0.00,,---,0.00,VWS V14.01,2013-09-08 16:25:00,
2013-09-08 10:30:00,60.1,35.7,29.99,North,7,0.0,4.0,40,0.00,,---,0.00,VWS V14.01,2013-09-08 16:30:00,
2013-09-08 10:35:00,59.7,35.4,29.99,North,10,0.0,0.0,40,0.00,,---,0.00,VWS V14.01,2013-09-08 16:35:00,
2013-09-08 10:40:00,59.7,36.0,29.99,NE,37,0.0,0.0,41,0.00,,---,0.00,VWS V14.01,2013-09-08 16:40:00,
2013-09-08 10:45:00,59.5,35.8,29.99,NW,321,0.0,0.0,41,0.00,,---,0.00,VWS V14.01,2013-09-08 16:45:00,
2013-09-08 10:50:00,59.4,35.7,29.99,WNW,302,0.0,4.9,41,0.00,,---,0.00,VWS V14.01,2013-09-08 16:50:00,
2013-09-08 10:55:00,59.2,35.5,29.99,North,3,0.0,4.9,41,0.00,,---,0.00,VWS V14.01,2013-09-08 16:55:00,
2013-09-08 11:00:00,59.2,35.5,29.99,NNW,335,2.2,4.9,41,0.00,,---,0.00,VWS V14.01,2013-09-08 17:00:00,
2013-09-08 11:05:00,59.5,35.2,29.99,WNW,283,0.0,3.1,40,0.00,,---,0.00,VWS V14.01,2013-09-08 17:05:00,
2013-09-08 11:10:00,60.1,35.7,29.99,North,9,0.0,3.6,40,0.00,,---,0.00,VWS V14.01,2013-09-08 17:10:00,
2013-09-08 11:15:00,60.1,34.4,29.99,NNE,14,0.0,3.6,38,0.00,,---,0.00,VWS V14.01,2013-09-08 17:15:00,
2013-09-08 11:20:00,60.4,34.7,29.99,NW,309,0.0,2.7,38,0.00,,---,0.00,VWS V14.01,2013-09-08 17:20:00,
2013-09-08 11:25:00,61.0,34.5,29.99,North,0,0.0,3.6,37,0.00,,---,0.00,VWS V14.01,2013-09-08 17:25:00,
2013-09-08 11:30:00,61.7,34.5,29.99,NNE,25,0.0,3.6,36,0.00,,---,0.00,VWS V14.01,2013-09-08 17:30:00,
2013-09-08 11:35:00,62.2,35.0,29.99,North,357,0.0,0.0,36,0.00,,---,0.00,VWS V14.01,2013-09-08 17:35:00,
2013-09-08 11:40:00,63.1,35.1,29.99,NNW,339,0.0,2.2,35,0.00,,---,0.00,VWS V14.01,2013-09-08 17:40:00,
2013-09-08 11:45:00,63.9,35.7,29.99,North,6,0.0,2.2,35,0.00,,---,0.00,VWS V14.01,2013-09-08 17:45:00,
2013-09-08 11:50:00,64.8,35.8,29.99,North,2,0.0,0.0,34,0.00,,---,0.00,VWS V14.01,2013-09-08 17:50:00,
2013-09-08 11:55:00,65.3,35.5,29.99,South,169,0.0,0.0,33,0.00,,---,0.00,VWS V14.01,2013-09-08 17:55:00,
2013-09-08 12:00:00,65.5,35.6,29.99,West,275,0.0,4.5,33,0.00,,---,0.00,VWS V14.01,2013-09-08 18:00:00,
2013-09-08 12:05:00,66.6,35.8,29.99,NNW,327,0.0,2.7,32,0.00,,---,0.00,VWS V14.01,2013-09-08 18:05:00,
2013-09-08 12:10:00,67.5,36.6,29.99,West,260,0.0,2.7,32,0.00,,---,0.00,VWS V14.01,2013-09-08 18:10:00,
2013-09-08 12:15:00,68.0,34.6,29.99,SW,234,0.0,4.9,29,0.00,,---,0.00,VWS V14.01,2013-09-08 18:15:00,
2013-09-08 12:20:00,67.8,35.3,29.99,NNW,343,0.0,0.0,30,0.00,,---,0.00,VWS V14.01,2013-09-08 18:20:00,
2013-09-08 12:24:00,66.9,33.7,29.99,North,8,0.0,0.0,29,0.00,,---,0.00,VWS V14.01,2013-09-08 18:24:00,
2013-09-08 12:29:00,66.2,34.7,29.99,North,8,0.0,0.0,31,0.00,,---,0.00,VWS V14.01,2013-09-08 18:29:00,
2013-09-08 12:34:00,65.7,35.8,29.99,North,0,0.0,2.7,33,0.00,,---,0.00,VWS V14.01,2013-09-08 18:34:00,
2013-09-08 12:39:00,67.8,36.1,29.99,North,357,0.0,3.1,31,0.00,,---,0.00,VWS V14.01,2013-09-08 18:39:00,
2013-09-08 12:44:00,70.2,36.5,29.99,NNE,32,2.7,4.0,29,0.00,,---,0.00,VWS V14.01,2013-09-08 18:44:00,
2013-09-08 12:49:00,70.2,35.6,29.99,North,2,0.0,2.7,28,0.00,,---,0.00,VWS V14.01,2013-09-08 18:49:00,
2013-09-08 12:54:00,69.4,35.0,29.99,North,0,0.0,2.7,28,0.00,,---,0.00,VWS V14.01,2013-09-08 18:54:00,
2013-09-08 12:59:00,68.0,35.4,29.99,NNE,17,0.0,2.7,30,0.00,,---,0.00,VWS V14.01,2013-09-08 18:59:00,
2013-09-08 13:04:00,66.9,35.3,29.99,NNE,33,3.1,4.0,31,0.00,,---,0.00,VWS V14.01,2013-09-08 19:04:00,
2013-09-08 13:09:00,65.1,35.3,29.99,North,353,0.0,4.0,33,0.00,,---,0.00,VWS V14.01,2013-09-08 19:09:00,
2013-09-08 13:14:00,64.2,35.3,29.99,WNW,299,0.0,4.0,34,0.00,,---,0.00,VWS V14.01,2013-09-08 19:14:00,
2013-09-08 13:19:00,61.2,37.9,29.99,NNE,25,0.0,3.1,42,0.00,,---,0.00,VWS V14.01,2013-09-08 19:19:00,
2013-09-08 13:24:00,59.2,41.1,29.99,North,5,0.0,3.1,51,0.00,,---,0.00,VWS V14.01,2013-09-08 19:24:00,
2013-09-08 13:29:00,59.2,40.6,29.99,North,0,0.0,3.1,50,0.00,,---,0.00,VWS V14.01,2013-09-08 19:29:00,
2013-09-08 13:34:00,61.0,39.5,29.99,North,357,0.0,3.1,45,0.00,,---,0.00,VWS V14.01,2013-09-08 19:34:00,
2013-09-08 13:39:00,61.9,38.6,29.99,NNW,344,0.0,3.1,42,0.00,,---,0.00,VWS V14.01,2013-09-08 19:39:00,
2013-09-08 13:44:00,62.1,38.7,29.99,NNW,344,0.0,3.1,42,0.00,,---,0.00,VWS V14.01,2013-09-08 19:44:00,
2013-09-08 13:49:00,62.4,37.8,29.99,NNW,344,0.0,0.0,40,0.00,,---,0.00,VWS V14.01,2013-09-08 19:49:00,
2013-09-08 13:54:00,62.4,39.7,29.99,NNW,344,0.0,0.0,43,0.00,,---,0.00,VWS V14.01,2013-09-08 19:54:00,
2013-09-08 13:59:00,63.0,38.3,29.99,NNW,342,0.0,0.0,40,0.00,,---,0.00,VWS V14.01,2013-09-08 19:59:00,
2013-09-08 14:04:00,63.7,38.9,29.99,NNW,342,0.0,0.0,40,0.00,,---,0.00,VWS V14.01,2013-09-08 20:04:00,
2013-09-08 14:09:00,64.4,37.6,29.99,North,353,0.0,0.0,37,0.00,,---,0.00,VWS V14.01,2013-09-08 20:09:00,
2013-09-08 14:14:00,64.4,37.6,29.99,North,8,0.0,0.0,37,0.00,,---,0.00,VWS V14.01,2013-09-08 20:14:00,
2013-09-08 14:19:00,64.9,38.1,29.99,NE,34,0.0,0.0,37,0.00,,---,0.00,VWS V14.01,2013-09-08 20:19:00,
2013-09-08 14:24:00,65.1,38.2,29.99,North,0,0.0,0.0,37,0.00,,---,0.00,VWS V14.01,2013-09-08 20:24:00,
2013-09-08 14:29:00,64.8,38.6,29.99,NNW,341,0.0,0.0,38,0.00,,---,0.00,VWS V14.01,2013-09-08 20:29:00,
2013-09-08 14:34:00,64.6,37.8,29.99,North,357,0.0,0.0,37,0.00,,---,0.00,VWS V14.01,2013-09-08 20:34:00,
2013-09-08 14:39:00,64.4,37.6,29.99,NNW,332,0.0,0.0,37,0.00,,---,0.00,VWS V14.01,2013-09-08 20:39:00,
2013-09-08 14:44:00,65.1,38.2,29.99,NNW,340,0.0,0.0,37,0.00,,---,0.00,VWS V14.01,2013-09-08 20:44:00,
2013-09-08 14:49:00,65.5,38.5,29.99,North,357,0.0,0.0,37,0.00,,---,0.00,VWS V14.01,2013-09-08 20:49:00,
2013-09-08 14:54:00,66.2,39.2,29.99,NE,45,0.0,0.0,37,0.00,,---,0.00,VWS V14.01,2013-09-08 20:54:00,
2013-09-08 14:59:00,69.4,41.3,29.99,ENE,70,0.0,0.0,36,0.00,,---,0.00,VWS V14.01,2013-09-08 20:59:00,
2013-09-08 15:04:00,71.2,40.7,29.99,ESE,103,2.7,4.9,33,0.00,,---,0.00,VWS V14.01,2013-09-08 21:04:00,
2013-09-08 15:09:00,73.0,41.5,29.96,ENE,58,3.1,4.9,32,0.00,,---,0.00,VWS V14.01,2013-09-08 21:09:00,
2013-09-08 15:14:00,73.6,41.1,29.96,SE,127,0.0,4.9,31,0.00,,---,0.00,VWS V14.01,2013-09-08 21:14:00,
2013-09-08 15:19:00,73.2,38.2,29.96,NE,37,0.0,4.0,28,0.00,,---,0.00,VWS V14.01,2013-09-08 21:19:00,
2013-09-08 15:24:00,74.1,39.0,29.96,SSE,163,2.7,4.0,28,0.00,,---,0.00,VWS V14.01,2013-09-08 21:24:00,
2013-09-08 15:29:00,73.2,37.3,29.96,East,85,2.2,4.0,27,0.00,,---,0.00,VWS V14.01,2013-09-08 21:29:00,
2013-09-08 15:34:00,72.1,37.3,29.96,East,85,0.0,2.7,28,0.00,,---,0.00,VWS V14.01,2013-09-08 21:34:00,
2013-09-08 15:39:00,73.0,36.2,29.96,East,82,2.7,2.7,26,0.00,,---,0.00,VWS V14.01,2013-09-08 21:39:00,
2013-09-08 15:44:00,72.7,35.8,29.96,ENE,64,0.0,3.6,26,0.00,,---,0.00,VWS V14.01,2013-09-08 21:44:00,
2013-09-08 15:49:00,73.8,36.8,29.96,ENE,75,4.9,5.4,26,0.00,,---,0.00,VWS V14.01,2013-09-08 21:49:00,
2013-09-08 15:54:00,73.8,35.8,29.96,East,97,0.0,6.3,25,0.00,,---,0.00,VWS V14.01,2013-09-08 21:54:00,
2013-09-08 15:59:00,73.9,35.9,29.96,East,97,3.1,6.3,25,0.00,,---,0.00,VWS V14.01,2013-09-08 21:59:00,
2013-09-08 16:04:00,75.0,36.8,29.96,ENE,61,6.7,6.7,25,0.00,,---,0.00,VWS V14.01,2013-09-08 22:04:00,
2013-09-08 16:09:00,75.2,36.0,29.96,ESE,119,0.0,6.7,24,0.00,,---,0.00,VWS V14.01,2013-09-08 22:09:00,
2013-09-08 16:14:00,73.9,35.9,29.96,SE,139,5.4,6.7,25,0.00,,---,0.00,VWS V14.01,2013-09-08 22:14:00,
2013-09-08 16:19:00,74.5,35.4,29.96,East,95,3.1,4.9,24,0.00,,---,0.00,VWS V14.01,2013-09-08 22:19:00,
2013-09-08 16:24:00,75.0,35.8,29.93,East,85,3.6,5.8,24,0.00,,---,0.00,VWS V14.01,2013-09-08 22:24:00,
2013-09-08 16:29:00,75.0,34.7,29.93,East,82,3.1,5.8,23,0.00,,---,0.00,VWS V14.01,2013-09-08 22:29:00,
2013-09-08 16:34:00,75.2,34.9,29.93,East,85,4.0,6.3,23,0.00,,---,0.00,VWS V14.01,2013-09-08 22:34:00,
2013-09-08 16:39:00,74.1,34.0,29.93,East,82,4.9,6.3,23,0.00,,---,0.00,VWS V14.01,2013-09-08 22:39:00,
2013-09-08 16:44:00,75.0,34.7,29.93,North,8,0.0,6.3,23,0.00,,---,0.00,VWS V14.01,2013-09-08 22:44:00,
2013-09-08 16:49:00,74.5,34.3,29.93,North,357,0.0,3.6,23,0.00,,---,0.00,VWS V14.01,2013-09-08 22:49:00,
2013-09-08 16:54:00,74.7,34.4,29.93,NNE,24,0.0,3.6,23,0.00,,---,0.00,VWS V14.01,2013-09-08 22:54:00,
2013-09-08 16:59:00,74.5,33.2,29.93,North,353,0.0,3.6,22,0.00,,---,0.00,VWS V14.01,2013-09-08 22:59:00,
2013-09-08 17:04:00,74.3,33.0,29.93,NNW,335,0.0,3.6,22,0.00,,---,0.00,VWS V14.01,2013-09-08 23:04:00,
2013-09-08 17:09:00,73.9,32.7,29.93,North,353,0.0,3.6,22,0.00,,---,0.00,VWS V14.01,2013-09-08 23:09:00,
2013-09-08 17:14:00,72.9,32.9,29.93,SW,228,0.0,4.5,23,0.00,,---,0.00,VWS V14.01,2013-09-08 23:14:00,
2013-09-08 17:19:00,72.5,32.6,29.93,SW,236,0.0,0.0,23,0.00,,---,0.00,VWS V14.01,2013-09-08 23:19:00,
2013-09-08 17:24:00,71.6,32.9,29.93,North,5,0.0,0.0,24,0.00,,---,0.00,VWS V14.01,2013-09-08 23:24:00,
2013-09-08 17:29:00,70.3,31.9,29.93,NNE,19,3.6,3.6,24,0.00,,---,0.00,VWS V14.01,2013-09-08 23:29:00,
2013-09-08 17:34:00,69.8,32.4,29.93,North,10,0.0,0.0,25,0.00,,---,0.00,VWS V14.01,2013-09-08 23:34:00,
2013-09-08 17:39:00,69.8,32.4,29.93,North,10,0.0,0.0,25,0.00,,---,0.00,VWS V14.01,2013-09-08 23:39:00,
2013-09-08 17:44:00,69.8,32.4,29.93,North,10,0.0,0.0,25,0.00,,---,0.00,VWS V14.01,2013-09-08 23:44:00,
2013-09-08 17:49:00,70.0,32.6,29.93,North,10,0.0,0.0,25,0.00,,---,0.00,VWS V14.01,2013-09-08 23:49:00,
2013-09-08 17:54:00,70.0,32.6,29.96,North,10,0.0,0.0,25,0.00,,---,0.00,VWS V14.01,2013-09-08 23:54:00,
2013-09-08 17:59:00,69.8,32.4,29.96,North,10,0.0,0.0,25,0.00,,---,0.00,VWS V14.01,2013-09-08 23:59:00,
2013-09-08 18:04:00,69.4,33.1,29.96,North,10,0.0,0.0,26,0.00,,---,0.00,VWS V14.01,2013-09-09 00:04:00,
2013-09-08 18:09:00,69.1,32.8,29.93,North,11,0.0,0.0,26,0.00,,---,0.00,VWS V14.01,2013-09-09 00:09:00,
2013-09-08 18:14:00,68.7,32.5,29.93,North,11,0.0,0.0,26,0.00,,---,0.00,VWS V14.01,2013-09-09 00:14:00,
2013-09-08 18:19:00,68.5,32.3,29.93,NE,50,0.0,2.2,26,0.00,,---,0.00,VWS V14.01,2013-09-09 00:19:00,
2013-09-08 18:24:00,68.4,33.1,29.93,NE,50,0.0,2.2,27,0.00,,---,0.00,VWS V14.01,2013-09-09 00:24:00,
2013-09-08 18:29:00,68.0,33.7,29.93,South,170,0.0,3.6,28,0.00,,---,0.00,VWS V14.01,2013-09-09 00:29:00,
2013-09-08 18:34:00,68.0,30.9,29.93,SW,232,3.1,5.8,25,0.00,,---,0.00,VWS V14.01,2013-09-09 00:34:00,
2013-09-08 18:39:00,67.8,29.7,29.96,NW,314,0.0,5.8,24,0.00,,---,0.00,VWS V14.01,2013-09-09 00:39:00,
2013-09-08 18:44:00,67.8,29.7,29.96,West,271,0.0,5.8,24,0.00,,---,0.00,VWS V14.01,2013-09-09 00:44:00,
2013-09-08 18:49:00,67.6,29.6,29.96,NNE,19,2.7,3.1,24,0.00,,---,0.00,VWS V14.01,2013-09-09 00:49:00,
2013-09-08 18:54:00,67.5,29.4,29.96,NNW,348,2.7,6.3,24,0.00,,---,0.00,VWS V14.01,2013-09-09 00:54:00,
2013-09-08 18:59:00,67.5,28.4,29.96,WNW,291,2.7,6.3,23,0.00,,---,0.00,VWS V14.01,2013-09-09 00:59:00,
2013-09-08 19:04:00,67.3,28.2,29.96,West,265,0.0,4.9,23,0.00,,---,0.00,VWS V14.01,2013-09-09 01:04:00,
2013-09-08 19:09:00,67.3,29.3,29.96,South,176,4.9,5.8,24,0.00,,---,0.00,VWS V14.01,2013-09-09 01:09:00,
2013-09-08 19:14:00,66.9,30.0,29.96,SSE,164,4.0,5.8,25,0.00,,---,0.00,VWS V14.01,2013-09-09 01:14:00,
2013-09-08 19:19:00,66.2,29.4,29.96,SSE,151,3.6,4.0,25,0.00,,---,0.00,VWS V14.01,2013-09-09 01:19:00,
2013-09-08 19:24:00,66.0,29.2,29.96,SW,222,0.0,6.3,25,0.00,,---,0.00,VWS V14.01,2013-09-09 01:24:00,
2013-09-08 19:29:00,65.7,28.9,29.96,West,259,0.0,6.3,25,0.00,,---,0.00,VWS V14.01,2013-09-09 01:29:00,
2013-09-08 19:34:00,65.3,27.6,29.96,West,259,0.0,0.0,24,0.00,,---,0.00,VWS V14.01,2013-09-09 01:34:00,
2013-09-08 19:39:00,64.9,27.3,29.96,West,280,4.0,4.0,24,0.00,,---,0.00,VWS V14.01,2013-09-09 01:39:00,
2013-09-08 19:44:00,64.8,27.2,29.96,NNW,335,0.0,4.0,24,0.00,,---,0.00,VWS V14.01,2013-09-09 01:44:00,
2013-09-08 19:49:00,64.6,27.0,29.96,West,273,3.6,3.6,24,0.00,,---,0.00,VWS V14.01,2013-09-09 01:49:00,
2013-09-08 19:54:00,64.4,26.9,29.96,WNW,299,0.0,4.9,24,0.00,,---,0.00,VWS V14.01,2013-09-09 01:54:00,
2013-09-08 19:59:00,64.0,26.5,29.96,SW,226,4.0,4.9,24,0.00,,---,0.00,VWS V14.01,2013-09-09 01:59:00,
2013-09-08 20:04:00,64.4,26.9,29.96,West,261,3.6,10.1,24,0.00,,---,0.00,VWS V14.01,2013-09-09 02:04:00,
2013-09-08 20:09:00,64.0,26.5,29.96,SW,216,0.0,10.1,24,0.00,,---,0.00,VWS V14.01,2013-09-09 02:09:00,
2013-09-08 20:14:00,63.1,25.8,29.96,SW,217,2.2,10.1,24,0.00,,---,0.00,VWS V14.01,2013-09-09 02:14:00,
2013-09-08 20:19:00,62.6,26.3,29.96,SW,215,2.2,4.0,25,0.00,,---,0.00,VWS V14.01,2013-09-09 02:19:00,
2013-09-08 20:24:00,62.2,26.0,29.96,West,262,0.0,4.5,25,0.00,,---,0.00,VWS V14.01,2013-09-09 02:24:00,
2013-09-08 20:29:00,61.9,25.7,29.96,West,273,0.0,4.9,25,0.00,,---,0.00,VWS V14.01,2013-09-09 02:29:00,
2013-09-08 20:34:00,62.2,26.0,29.96,WSW,256,0.0,3.6,25,0.00,,---,0.00,VWS V14.01,2013-09-09 02:34:00,
2013-09-08 20:39:00,62.4,26.2,29.96,West,277,0.0,3.6,25,0.00,,---,0.00,VWS V14.01,2013-09-09 02:39:00,
2013-09-08 20:44:00,62.4,26.2,29.96,WSW,244,0.0,3.6,25,0.00,,---,0.00,VWS V14.01,2013-09-09 02:44:00,
2013-09-08 20:49:00,61.3,25.2,29.96,WSW,244,0.0,0.0,25,0.00,,---,0.00,VWS V14.01,2013-09-09 02:49:00,
2013-09-08 20:54:00,60.6,25.6,29.96,WNW,291,2.7,3.6,26,0.00,,---,0.00,VWS V14.01,2013-09-09 02:54:00,
2013-09-08 20:59:00,60.4,26.3,29.96,WNW,288,0.0,3.6,27,0.00,,---,0.00,VWS V14.01,2013-09-09 02:59:00,
2013-09-08 21:04:00,61.3,26.2,29.96,West,263,3.6,4.0,26,0.00,,---,0.00,VWS V14.01,2013-09-09 03:04:00,
2013-09-08 21:09:00,61.9,26.6,29.96,West,272,0.0,4.9,26,0.00,,---,0.00,VWS V14.01,2013-09-09 03:09:00,
2013-09-08 21:14:00,61.9,26.6,29.96,SSE,151,2.2,4.9,26,0.00,,---,0.00,VWS V14.01,2013-09-09 03:14:00,
2013-09-08 21:19:00,61.2,26.9,29.96,ESE,110,0.0,0.0,27,0.00,,---,0.00,VWS V14.01,2013-09-09 03:19:00,
2013-09-08 21:24:00,59.7,25.7,29.96,SSW,200,4.0,4.9,27,0.00,,---,0.00,VWS V14.01,2013-09-09 03:24:00,
2013-09-08 21:29:00,58.6,25.6,29.96,SSW,213,0.0,4.9,28,0.00,,---,0.00,VWS V14.01,2013-09-09 03:29:00,
2013-09-08 21:34:00,57.9,26.7,29.96,West,281,2.7,4.5,30,0.00,,---,0.00,VWS V14.01,2013-09-09 03:34:00,
2013-09-08 21:39:00,58.3,27.8,29.96,NW,305,0.0,4.5,31,0.00,,---,0.00,VWS V14.01,2013-09-09 03:39:00,
2013-09-08 21:44:00,58.5,28.0,29.96,ENE,65,3.1,4.5,31,0.00,,---,0.00,VWS V14.01,2013-09-09 03:44:00,
2013-09-08 21:49:00,58.1,27.6,29.96,ENE,77,2.7,3.1,31,0.00,,---,0.00,VWS V14.01,2013-09-09 03:49:00,
2013-09-08 21:54:00,57.9,28.3,29.96,ESE,102,0.0,3.1,32,0.00,,---,0.00,VWS V14.01,2013-09-09 03:54:00,
2013-09-08 21:59:00,57.4,27.8,29.96,SSW,210,0.0,3.1,32,0.00,,---,0.00,VWS V14.01,2013-09-09 03:59:00,
2013-09-08 22:01:00,57.2,27.6,29.96,SSW,210,0.0,0.0,32,0.00,,---,0.00,VWS V14.01,2013-09-09 04:01:00,
2013-09-08 22:06:00,56.3,27.6,29.99,SSW,208,0.0,3.1,33,0.00,,---,0.00,VWS V14.01,2013-09-09 04:06:00,
2013-09-08 22:11:00,55.9,28.7,29.99,South,182,0.0,3.1,35,0.00,,---,0.00,VWS V14.01,2013-09-09 04:11:00,
2013-09-08 22:16:00,55.2,28.1,29.99,South,184,0.0,0.0,35,0.00,,---,0.00,VWS V14.01,2013-09-09 04:16:00,
2013-09-08 22:21:00,54.7,28.3,29.99,South,184,0.0,0.0,36,0.00,,---,0.00,VWS V14.01,2013-09-09 04:21:00,
2013-09-08 22:26:00,54.9,29.1,29.99,SE,129,0.0,0.0,37,0.00,,---,0.00,VWS V14.01,2013-09-09 04:26:00,
2013-09-08 22:31:00,54.9,29.1,29.99,SW,232,0.0,0.0,37,0.00,,---,0.00,VWS V14.01,2013-09-09 04:31:00,
2013-09-08 22:36:00,54.7,28.9,29.99,SSE,147,0.0,0.0,37,0.00,,---,0.00,VWS V14.01,2013-09-09 04:36:00,
2013-09-08 22:41:00,54.5,28.8,29.99,SSE,147,0.0,0.0,37,0.00,,---,0.00,VWS V14.01,2013-09-09 04:41:00,
2013-09-08 22:46:00,54.9,29.8,29.99,SSE,153,0.0,0.0,38,0.00,,---,0.00,VWS V14.01,2013-09-09 04:46:00,
2013-09-08 22:51:00,54.5,29.4,29.99,ENE,59,0.0,0.0,38,0.00,,---,0.00,VWS V14.01,2013-09-09 04:51:00,
2013-09-08 22:56:00,54.3,29.3,29.99,East,96,0.0,0.0,38,0.00,,---,0.00,VWS V14.01,2013-09-09 04:56:00,
2013-09-08 23:01:00,53.6,28.6,29.99,East,96,0.0,0.0,38,0.00,,---,0.00,VWS V14.01,2013-09-09 05:01:00,
2013-09-08 23:06:00,53.2,28.3,29.99,SW,230,0.0,0.0,38,0.00,,---,0.00,VWS V14.01,2013-09-09 05:06:00,
2013-09-08 23:11:00,52.7,28.5,29.99,SW,230,0.0,0.0,39,0.00,,---,0.00,VWS V14.01,2013-09-09 05:11:00,
2013-09-08 23:16:00,52.5,28.3,29.99,SW,236,0.0,0.0,39,0.00,,---,0.00,VWS V14.01,2013-09-09 05:16:00,
2013-09-08 23:21:00,52.2,28.0,29.99,SW,236,0.0,0.0,39,0.00,,---,0.00,VWS V14.01,2013-09-09 05:21:00,
2013-09-08 23:26:00,51.6,28.1,29.99,SW,236,0.0,0.0,40,0.00,,---,0.00,VWS V14.01,2013-09-09 05:26:00,
2013-09-08 23:31:00,51.3,27.8,29.99,SW,236,0.0,0.0,40,0.00,,---,0.00,VWS V14.01,2013-09-09 05:31:00,
2013-09-08 23:36:00,51.1,27.6,29.99,South,180,0.0,0.0,40,0.00,,---,0.00,VWS V14.01,2013-09-09 05:36:00,
2013-09-08 23:41:00,50.9,28.1,29.99,South,180,0.0,0.0,41,0.00,,---,0.00,VWS V14.01,2013-09-09 05:41:00,
2013-09-08 23:46:00,50.9,29.2,29.99,SSW,199,3.6,3.6,43,0.00,,---,0.00,VWS V14.01,2013-09-09 05:46:00,
2013-09-08 23:51:00,50.9,28.6,29.99,SSW,196,0.0,3.6,42,0.00,,---,0.00,VWS V14.01,2013-09-09 05:51:00,
2013-09-08 23:56:00,50.9,28.6,29.99,SSW,196,0.0,3.6,42,0.00,,---,0.00,VWS V14.01,2013-09-09 05:56:00,